User: anonymous   Login
Location: Ocean City
(38.3360°N, 75.0850°W)
Time: 22:55:56
(UTC-04:00)
Language:

BEESAT 2 - Orbit

View from above orbital plane
View from above orbital plane
View from above satellite
View from above satellite

Ground track
Ground track

The orbit data is extracted from the following two-line orbital elements,

1 39136U 13015G   19140.37509236  .00000729  00000-0  46752-4 0  9998
2 39136  64.8679 137.0346 0017413 308.3017  51.6542 15.16842366335721
Epoch (UTC): 20 May 2019 09:00:07
Eccentricity: 0.0017413
inclination: 64.8679°
perigee height: 503 km
apogee height: 527 km
right ascension of ascending node: 137.0346°
argument of perigee: 308.3017°
revolutions per day: 15.16842366
mean anomaly at epoch: 51.6542°
orbit number at epoch: 33572

The dashed part of the orbit path shows where the satellite is in the earth's shadow,  

DLR